Nantucket, MA

12:08 AM EDT on April 24, 2017 (GMT -0400)
Nantucket Memorial

Weather History for KACK - October, 2010

Change the Weather History Date:

Sunday, October 10, 2010

  Actual Average Record
Temperature  
Mean Temperature 54 °F -  
Max Temperature 61 °F 62 °F 80 °F (2011)
Min Temperature 48 °F 45 °F 31 °F (1972)
Degree Days  
Heating Degree Days 11    
Growing Degree Days 4 (Base 50)    
Moisture  
Dew Point 40 °F    
Average Humidity 58    
Maximum Humidity 90    
Minimum Humidity 40    
Precipitation  
Precipitation 0.00 in - - ()
Sea Level Pressure  
Sea Level Pressure 29.84 in    
Wind  
Wind Speed 15 mph (West)    
Max Wind Speed 23 mph    
Max Gust Speed 30 mph    
Visibility 10 miles    
Events      
Averages and records for this station are not official NWS values.
T = Trace of Precipitation, MM = Missing Value Source: NWS Daily Summary

Daily Weather History Graph

Daily Weather History Graph

Search for Another Location

Airport or City:

Trip Planner

Search our weather history database for the weather conditions in past years. The results will help you decide how hot, cold, wet, or windy it might be!

Date:

Astronomy

Oct. 10, 2010 Rise Set
Actual Time 6:46 AM EDT 6:07 PM EDT
Civil Twilight 6:18 AM EDT 6:35 PM EDT
Nautical Twilight 5:46 AM EDT 7:06 PM EDT
Astronomical Twilight 5:14 AM EDT 7:38 PM EDT
Moon 10:16 AM EDT (10/10) 7:45 PM EDT (10/10)
Length of Visible Light 12h 16m
Length of Day
11h 20m
Waxing Crescent, 11% of the Moon is Illuminated
Oct 10
Waxing Crescent
Oct 14
First Quarter
Oct 22
Full
Oct 30
Last Quarter
Nov 6
New

Hourly Weather History & Observations

Time (EDT) Temp. Dew Point Humidity Pressure Visibility Wind Dir Wind Speed Gust Speed Precip Events Conditions
12:53 AM 52.0 °F 37.9 °F 59% 29.95 in 10.0 mi NNW 12.7 mph - N/A   Clear
1:53 AM 51.1 °F 35.1 °F 54% 29.94 in 10.0 mi NNW 16.1 mph 24.2 mph N/A   Clear
2:53 AM 48.9 °F 36.0 °F 61% 29.93 in 10.0 mi NNW 15.0 mph - N/A   Clear
3:53 AM 50.0 °F 34.0 °F 54% 29.92 in 10.0 mi NNW 15.0 mph - N/A   Clear
4:53 AM 48.9 °F 34.0 °F 56% 29.93 in 10.0 mi NNW 11.5 mph - N/A   Clear
5:53 AM 48.9 °F 33.1 °F 54% 29.92 in 10.0 mi NW 9.2 mph - N/A   Clear
6:53 AM 50.0 °F 33.1 °F 52% 29.93 in 10.0 mi NNW 15.0 mph - N/A   Clear
7:53 AM 52.0 °F 33.1 °F 49% 29.94 in 10.0 mi NW 11.5 mph - N/A   Clear
8:53 AM 55.0 °F 30.9 °F 40% 29.94 in 10.0 mi WNW 11.5 mph - N/A   Clear
9:53 AM 55.9 °F 32.0 °F 40% 29.93 in 10.0 mi West 13.8 mph - N/A   Clear
10:53 AM 59.0 °F 37.9 °F 46% 29.90 in 10.0 mi West 17.3 mph 20.7 mph N/A   Clear
11:53 AM 59.0 °F 39.0 °F 48% 29.87 in 10.0 mi WSW 15.0 mph 23.0 mph N/A   Clear
12:53 PM 60.1 °F 39.0 °F 46% 29.85 in 10.0 mi WSW 18.4 mph 28.8 mph N/A   Clear
3:53 PM 60.1 °F 37.9 °F 44% 29.77 in 10.0 mi WSW 17.3 mph 26.5 mph N/A   Clear
4:53 PM 59.0 °F 41.0 °F 51% 29.73 in 10.0 mi WSW 23.0 mph 29.9 mph N/A   Clear
5:53 PM 57.0 °F 43.0 °F 59% 29.73 in 10.0 mi WSW 19.6 mph 26.5 mph N/A   Clear
6:53 PM 57.0 °F 45.0 °F 64% 29.72 in 10.0 mi WSW 19.6 mph 25.3 mph N/A   Clear
7:53 PM 57.9 °F 48.0 °F 70% 29.72 in 10.0 mi WSW 20.7 mph 25.3 mph N/A   Clear
8:53 PM 59.0 °F 50.0 °F 72% 29.72 in 10.0 mi WSW 18.4 mph 25.3 mph N/A   Clear
9:53 PM 59.0 °F 52.0 °F 78% 29.73 in 10.0 mi WSW 16.1 mph - N/A   Clear
10:53 PM 59.0 °F 53.1 °F 81% 29.72 in 10.0 mi WSW 11.5 mph - N/A   Clear
11:53 PM 59.0 °F 55.9 °F 90% 29.71 in 10.0 mi WSW 13.8 mph - N/A   Clear